• In Hungary
  • List of Countries
  • For 7 days
  • Water Temperature
  • Satellite Maps
  • Weather Map
  • News
  • Weather Widgets
  • user-avatar
    Login

    Hourly Weather Coslada

    Today, 16 January, Tuesday

    Time Temperature Precipitation Wind Pressure Humidity
    00:00 +3°C° 0 mm 2 mps 715 mmHg 67%
    01:00 +3°C° 0 mm 2 mps 715 mmHg 68%
    02:00 +3°C° 0 mm 2 mps 715 mmHg 70%
    03:00 +4°C° 0 mm 1 mps 715 mmHg 72%
    04:00 +4°C° 0 mm 1 mps 715 mmHg 72%
    05:00 +4°C° 0 mm 2 mps 715 mmHg 73%
    06:00 +4°C° 0 mm 2 mps 715 mmHg 74%
    07:00 +4°C° 0 mm 2 mps 715 mmHg 74%
    08:00 +6°C° 0 mm 1 mps 715 mmHg 73%
    09:00 +6°C° 0 mm 1 mps 715 mmHg 73%
    10:00 +7°C° 0 mm 2 mps 715 mmHg 71%
    11:00 +9°C° 0 mm 2 mps 715 mmHg 69%
    12:00 +10°C° 0 mm 2 mps 715 mmHg 67%
    13:00 +11°C° 0 mm 3 mps 715 mmHg 68%
    14:00 +12°C° 0 mm 3 mps 714 mmHg 68%
    15:00 +13°C° 0 mm 3 mps 714 mmHg 69%
    16:00 +11°C° 0 mm 3 mps 714 mmHg 74%
    17:00 +10°C° 0 mm 3 mps 714 mmHg 80%
    18:00 +9°C° 0 mm 3 mps 714 mmHg 85%
    19:00 +9°C° 0 mm 3 mps 714 mmHg 86%
    20:00 +8°C° 0 mm 2 mps 714 mmHg 87%
    21:00 +8°C° 0 mm 2 mps 714 mmHg 89%
    22:00 +7°C° 0 mm 2 mps 714 mmHg 89%
    23:00 +7°C° 0 mm 2 mps 714 mmHg 89%

    Tomorrow, 17 January, Wednesday

    Time Temperature Precipitation Wind Pressure Humidity
    00:00 +7°C° 0 mm 2 mps 714 mmHg 89%
    01:00 +6°C° 0 mm 2 mps 714 mmHg 90%
    02:00 +6°C° 0 mm 2 mps 714 mmHg 90%
    03:00 +6°C° 0 mm 2 mps 714 mmHg 90%
    04:00 +6°C° 0 mm 2 mps 714 mmHg 90%
    05:00 +6°C° 0 mm 2 mps 714 mmHg 90%
    06:00 +5°C° 0 mm 2 mps 714 mmHg 90%
    07:00 +6°C° 0 mm 2 mps 714 mmHg 88%
    08:00 +6°C° 0 mm 2 mps 715 mmHg 86%
    09:00 +7°C° 0 mm 2 mps 715 mmHg 84%
    10:00 +8°C° 0 mm 2 mps 715 mmHg 77%
    11:00 +9°C° 0 mm 2 mps 715 mmHg 70%
    12:00 +12°C° 0 mm 2 mps 715 mmHg 64%
    13:00 +12°C° 0 mm 2 mps 715 mmHg 61%
    14:00 +12°C° 0 mm 2 mps 715 mmHg 59%
    15:00 +13°C° 0 mm 2 mps 715 mmHg 56%
    16:00 +10°C° 0 mm 2 mps 715 mmHg 61%
    17:00 +9°C° 0 mm 2 mps 715 mmHg 67%
    18:00 +8°C° 0 mm 2 mps 715 mmHg 72%
    19:00 +7°C° 0 mm 2 mps 715 mmHg 73%
    20:00 +7°C° 0 mm 2 mps 715 mmHg 74%
    21:00 +6°C° 0 mm 2 mps 715 mmHg 75%
    22:00 +6°C° 0 mm 2 mps 715 mmHg 76%
    23:00 +5°C° 0 mm 2 mps 715 mmHg 76%

    Day after tomorrow, 18 January, Thursday

    Time Temperature Precipitation Wind Pressure Humidity
    00:00 +5°C° 0 mm 2 mps 715 mmHg 76%
    01:00 +5°C° 0 mm 2 mps 715 mmHg 76%
    02:00 +4°C° 0 mm 2 mps 715 mmHg 76%
    03:00 +4°C° 0 mm 2 mps 714 mmHg 75%
    04:00 +4°C° 0 mm 2 mps 714 mmHg 75%
    05:00 +4°C° 0 mm 2 mps 714 mmHg 75%
    06:00 +3°C° 0 mm 2 mps 713 mmHg 74%
    07:00 +5°C° 0 mm 1 mps 714 mmHg 71%
    08:00 +6°C° 0 mm 1 mps 714 mmHg 67%
    09:00 +7°C° 0 mm 1 mps 714 mmHg 64%
    10:00 +8°C° 0 mm 1 mps 714 mmHg 58%
    11:00 +10°C° 0 mm 1 mps 713 mmHg 53%
    12:00 +12°C° 0 mm 1 mps 713 mmHg 48%
    13:00 +12°C° 0 mm 1 mps 712 mmHg 46%
    14:00 +13°C° 0 mm 1 mps 712 mmHg 45%
    15:00 +14°C° 0 mm 1 mps 711 mmHg 43%
    16:00 +12°C° 0 mm 1 mps 711 mmHg 49%
    17:00 +10°C° 0 mm 1 mps 710 mmHg 55%
    18:00 +7°C° 0 mm 0 mps 710 mmHg 60%
    19:00 +7°C° 0 mm 0 mps 710 mmHg 61%
    20:00 +8°C° 0 mm 1 mps 710 mmHg 62%
    21:00 +7°C° 0 mm 1 mps 710 mmHg 63%
    22:00 +7°C° 0 mm 1 mps 710 mmHg 63%
    23:00 +7°C° 0 mm 1 mps 710 mmHg 62%

    19 January, Friday

    Time Temperature Precipitation Wind Pressure Humidity
    00:00 +7°C° 0 mm 1 mps 710 mmHg 62%
    01:00 +7°C° 0 mm 1 mps 709 mmHg 62%
    02:00 +7°C° 0 mm 1 mps 709 mmHg 63%
    03:00 +6°C° 0 mm 1 mps 709 mmHg 63%
    04:00 +6°C° 0 mm 1 mps 709 mmHg 65%
    05:00 +6°C° 0 mm 1 mps 709 mmHg 67%
    06:00 +6°C° 0 mm 1 mps 708 mmHg 69%
    07:00 +7°C° 0 mm 1 mps 709 mmHg 68%
    08:00 +7°C° 0 mm 1 mps 709 mmHg 67%
    09:00 +7°C° 0 mm 2 mps 709 mmHg 67%
    10:00 +9°C° 0 mm 2 mps 709 mmHg 62%
    11:00 +10°C° 0 mm 2 mps 709 mmHg 58%
    12:00 +13°C° 0 mm 2 mps 709 mmHg 54%
    13:00 +12°C° 0 mm 3 mps 709 mmHg 53%
    14:00 +12°C° 0 mm 4 mps 708 mmHg 52%
    15:00 +13°C° 0 mm 4 mps 708 mmHg 50%
    16:00 +11°C° 0 mm 4 mps 708 mmHg 55%
    17:00 +10°C° 0 mm 4 mps 708 mmHg 61%
    18:00 +7°C° 0 mm 4 mps 709 mmHg 66%
    19:00 +6°C° 0 mm 4 mps 709 mmHg 66%
    20:00 +5°C° 0 mm 3 mps 710 mmHg 67%
    21:00 +5°C° 0 mm 3 mps 710 mmHg 67%
    22:00 +4°C° 0 mm 3 mps 710 mmHg 67%
    23:00 +4°C° 0 mm 3 mps 711 mmHg 68%

    20 January, Saturday

    Time Temperature Precipitation Wind Pressure Humidity
    00:00 +3°C° 0 mm 4 mps 711 mmHg 68%
    01:00 +3°C° 0 mm 4 mps 711 mmHg 69%
    02:00 +3°C° 0 mm 4 mps 711 mmHg 70%
    03:00 +1°C° 0 mm 4 mps 711 mmHg 71%
    04:00 +1°C° 0 mm 4 mps 711 mmHg 71%
    05:00 +1°C° 0 mm 4 mps 711 mmHg 72%
    06:00 +1°C° 0 mm 4 mps 711 mmHg 72%
    07:00 +1°C° 0 mm 5 mps 711 mmHg 70%
    08:00 +2°C° 0 mm 5 mps 712 mmHg 68%
    09:00 +2°C° 0 mm 5 mps 712 mmHg 67%
    10:00 +4°C° 0 mm 6 mps 712 mmHg 62%
    11:00 +7°C° 0 mm 6 mps 712 mmHg 56%
    12:00 +8°C° 0 mm 7 mps 712 mmHg 51%
    13:00 +9°C° 0 mm 7 mps 712 mmHg 52%
    14:00 +9°C° 0 mm 7 mps 712 mmHg 52%
    15:00 +9°C° 0 mm 7 mps 712 mmHg 53%
    16:00 +8°C° 0 mm 6 mps 712 mmHg 58%
    17:00 +7°C° 0 mm 5 mps 712 mmHg 62%
    18:00 +6°C° 0 mm 4 mps 712 mmHg 67%
    19:00 +6°C° 0 mm 4 mps 712 mmHg 70%
    20:00 +6°C° 0 mm 5 mps 712 mmHg 73%
    21:00 +6°C° 0 mm 5 mps 712 mmHg 75%
    22:00 +5°C° 0 mm 5 mps 712 mmHg 77%
    23:00 +5°C° 0 mm 5 mps 712 mmHg 79%

    21 January, Sunday

    Time Temperature Precipitation Wind Pressure Humidity
    00:00 +5°C° 0 mm 5 mps 712 mmHg 80%
    01:00 +5°C° 0 mm 5 mps 712 mmHg 81%
    02:00 +5°C° 0 mm 5 mps 712 mmHg 83%
    03:00 +5°C° 0 mm 5 mps 712 mmHg 84%
    04:00 +5°C° 0 mm 5 mps 712 mmHg 84%
    05:00 +5°C° 0 mm 5 mps 712 mmHg 85%
    06:00 +5°C° 0 mm 5 mps 712 mmHg 85%
    07:00 +6°C° 0 mm 5 mps 712 mmHg 84%
    08:00 +6°C° 0 mm 5 mps 712 mmHg 82%
    09:00 +7°C° 0 mm 5 mps 713 mmHg 81%
    10:00 +9°C° 0 mm 6 mps 713 mmHg 74%
    11:00 +10°C° 0 mm 7 mps 713 mmHg 68%
    12:00 +12°C° 0 mm 7 mps 712 mmHg 61%
    13:00 +12°C° 0 mm 7 mps 712 mmHg 61%
    14:00 +14°C° 0 mm 7 mps 712 mmHg 60%
    15:00 +14°C° 0 mm 7 mps 712 mmHg 60%
    16:00 +13°C° 0 mm 6 mps 712 mmHg 65%
    17:00 +12°C° 0 mm 5 mps 712 mmHg 70%
    18:00 +11°C° 0 mm 4 mps 712 mmHg 75%
    19:00 +10°C° 0 mm 4 mps 713 mmHg 77%
    20:00 +10°C° 0 mm 4 mps 713 mmHg 79%
    21:00 +9°C° 0 mm 3 mps 713 mmHg 82%
    22:00 +9°C° 0 mm 3 mps 713 mmHg 83%
    23:00 +8°C° 0 mm 3 mps 713 mmHg 85%
    Show more